[[{"header":{"parameterUnit":"m.s-1","parameterCategory":1,"la1":30.2991,"la2":30.254,"lo1":-89.0895,"lo2":-89.0444,"dy":0.0017,"dx":0.0017,"nx":28,"ny":28,"refTime":"2024-04-20T21:00:00:Z","depth":0,"parameterNumber":2,"parameterNumberName":"U-component_of_WINDS"},"data":[0,0,0,0,0,0,0,0,0,0,0,0,0,0,0,0,0,0,0,0,0,0,0,0,0,0,0,0,0,0,0,0,0,0,0,0,0,0,0,0,0,0,0,0,0,0,0,0,0,0,0,0,0,0,0,0,0,0,-1.1308,-1.1309,0,-1.1364,-1.1365,-1.1365,-1.1308,-1.1306,-1.1304,-1.1302,-1.1361,-1.1365,-1.1368,0,0,0,0,0,0,0,0,0,0,0,0,0,-1.1154,-1.1157,-1.1308,-1.1309,-1.1309,-1.1364,-1.1365,-1.1365,-1.1309,-1.1306,-1.1303,-1.1301,-1.136,-1.1364,-1.1369,0,0,0,0,0,0,0,0,0,0,0,0,0,-1.1216,-1.1158,-1.1308,-1.1288,-1.1286,-1.1364,-1.1365,-1.1366,-1.1309,-1.1306,-1.1303,-1.13,-1.1359,-1.1364,-1.1369,-1.147,0,0,-1.1386,-1.1389,0,0,0,0,0,0,0,0,-1.1213,-1.1222,-1.129,-1.1289,-1.1288,-1.1326,-1.1332,-1.1401,-1.131,-1.1301,-1.1302,-1.1298,-1.1352,-1.1358,-1.1376,-1.1473,-1.1475,-1.1387,-1.139,-1.1392,-1.1394,0,0,0,0,0,0,0,-1.1209,-1.1219,-1.133,-1.1291,-1.129,-1.1276,-1.1281,-1.1345,-1.1345,-1.1301,-1.1297,-1.1305,-1.1351,-1.1371,-1.1377,-1.1476,-1.1386,-1.1391,-1.1395,-1.1397,-1.1658,-1.1661,0,0,0,0,0,0,-1.1206,-1.1216,-1.1328,-1.1332,-1.1241,-1.1282,-1.1288,-1.1317,-1.1344,-1.1345,-1.1307,-1.1302,-1.1363,-1.1371,-1.1379,-1.1499,-1.1392,-1.1397,-1.1401,-1.1654,-1.1659,-1.1663,0,0,0,0,0,0,-1.1203,-1.1217,-1.1326,-1.1273,-1.1286,-1.1288,-1.1321,-1.132,-1.134,-1.1348,-1.1348,-1.1328,-1.1361,-1.1371,-1.1448,-1.15,-1.14,-1.1405,-1.165,-1.1656,-1.1661,-1.174,0,0,0,0,0,0,-1.1199,-1.1216,-1.1254,-1.1274,-1.1289,-1.1394,-1.1325,-1.1323,-1.1349,-1.1342,-1.1367,-1.1368,-1.1359,-1.144,-1.1453,-1.1506,-1.1409,-1.1645,-1.1653,-1.1659,-1.1732,-1.1747,-1.176,0,0,0,0,0,-1.1194,-1.1275,-1.1257,-1.127,-1.1337,-1.1397,-1.1406,-1.1393,-1.1353,-1.1392,-1.1397,-1.1367,-1.1492,-1.1448,-1.1463,-1.1518,-1.1642,-1.1651,-1.1658,-1.1726,-1.1744,-1.1759,0,0,0,0,0,0,-1.1262,-1.1277,-1.1257,-1.1347,-1.1371,-1.1387,-1.1436,-1.1412,-1.1449,-1.1441,-1.1424,-1.143,-1.1511,-1.1522,-1.1473,-1.1616,-1.156,-1.1572,-1.1607,-1.1624,-1.1638,-1.1635,-1.1414,0,0,0,0,0,-1.1288,-1.1335,-1.1345,-1.1424,-1.1437,-1.1434,-1.146,-1.1448,-1.1473,-1.1483,-1.1494,-1.152,-1.1564,-1.1594,-1.1636,-1.1733,-1.1738,-1.1778,-1.1791,-1.1802,-1.1813,-1.1866,-1.1884,-1.169,-1.169,-1.1689,0,0,-1.1341,-1.1355,-1.1386,-1.1438,-1.1455,-1.1505,-1.1444,-1.1499,-1.1537,-1.1492,-1.1565,-1.1573,-1.1601,-1.1688,-1.1727,-1.1699,-1.1868,-1.1813,-1.1822,-1.1827,-1.1876,-1.1894,-1.1911,-1.1695,-1.1694,-1.1693,0,0,-1.1465,-1.1479,-1.1546,-1.1564,-1.1591,-1.1588,-1.1604,-1.1624,-1.1628,-1.17,-1.1668,-1.1711,-1.1789,-1.181,-1.1831,-1.196,-1.1934,-1.1973,-1.2046,-1.2097,-1.2112,-1.2126,-1.2173,-1.219,-1.1984,-1.1984,-1.1984,0,-1.1528,-1.1602,-1.1584,-1.1642,-1.1666,-1.1626,-1.1694,-1.1712,-1.1752,-1.1769,-1.1737,-1.1833,-1.1848,-1.194,-1.1971,-1.1989,-1.2007,-1.1972,-1.2111,-1.2125,-1.2137,-1.2182,-1.22,-1.1989,-1.1988,-1.1988,-1.1987,0,-1.1679,-1.1731,-1.1782,-1.182,-1.1849,-1.1912,-1.1904,-1.1935,-1.192,-1.1921,-1.1995,-1.2011,-1.2056,-1.2076,-1.2062,-1.2166,-1.2148,-1.2114,-1.2058,-1.2161,-1.2203,-1.222,-1.1996,-1.1994,-1.1992,-1.1991,0,0,-1.1851,-1.1876,-1.1895,-1.1912,-1.1937,-1.1977,-1.2037,-1.208,-1.2108,-1.2135,-1.2186,-1.2251,-1.222,-1.2243,-1.2231,-1.2275,-1.2377,-1.2236,-1.2236,-1.2263,-1.2494,-1.2521,-1.2541,-1.2359,-1.2362,-1.2365,-1.2492,0,-1.1976,-1.2081,-1.2066,-1.2167,-1.2215,-1.2176,-1.2229,-1.225,-1.2252,-1.2293,-1.2294,-1.2342,-1.2295,-1.2309,-1.2351,-1.2356,-1.2424,-1.2346,-1.2408,-1.241,-1.2405,-1.2563,-1.2592,-1.2711,-1.2508,-1.2511,-1.2513,0,-1.2137,-1.217,-1.2276,-1.2293,-1.2312,-1.236,-1.2397,-1.2436,-1.2459,-1.2457,-1.2483,-1.2461,-1.2522,-1.2463,-1.2546,-1.2494,-1.2518,-1.2523,-1.2528,-1.2535,-1.247,-1.2576,-1.2749,-1.2768,-1.2538,-1.2536,-1.2534,0,-1.2253,-1.2323,-1.2396,-1.2411,-1.2432,-1.2467,-1.2477,-1.2497,-1.2523,-1.2555,-1.2572,-1.2611,-1.2633,-1.2664,-1.2654,-1.2611,-1.274,-1.268,-1.2741,-1.2742,-1.2773,-1.2772,-1.2954,-1.2784,-1.2784,-1.2784,-1.2783,0,-1.2396,-1.2463,-1.2448,-1.2493,-1.2567,-1.2548,-1.2621,-1.2627,-1.2644,-1.269,-1.2658,-1.2701,-1.2684,-1.2727,-1.2719,-1.279,-1.28,-1.2801,-1.2798,-1.2805,-1.2805,-1.2822,-1.2814,-1.2788,-1.2787,-1.2787,-1.2786,0,-1.254,-1.2533,-1.2609,-1.2622,-1.2627,-1.2681,-1.2692,-1.2735,-1.2732,-1.279,-1.2803,-1.2801,-1.2849,-1.2841,-1.2894,-1.2889,-1.2978,-1.2964,-1.2971,-1.2968,-1.3031,-1.3026,-1.3233,-1.3259,-1.3071,-1.3072,-1.3074,0,-1.2633,-1.2684,-1.2702,-1.2729,-1.2742,-1.2787,-1.2814,-1.2796,-1.2825,-1.2854,-1.2893,-1.2937,-1.2973,-1.3051,-1.3055,-1.3095,-1.3084,-1.3153,-1.309,-1.3095,-1.3087,-1.3085,-1.309,-1.3167,-1.3169,-1.3171,-1.3172,0,-1.28,-1.2793,-1.2832,-1.2869,-1.2901,-1.2929,-1.2955,-1.298,-1.2964,-1.2998,-1.3046,-1.3073,-1.3127,-1.3173,-1.321,-1.3221,-1.3195,-1.3191,-1.3208,-1.3217,-1.3219,-1.322,-1.3007,-1.3187,-1.3186,-1.3185,-1.3184,-1.3183,-1.2922,-1.2965,-1.2985,-1.3028,-1.3045,-1.307,-1.311,-1.3112,-1.3152,-1.3194,-1.3181,-1.3236,-1.3256,-1.3304,-1.3319,-1.3362,-1.3336,-1.336,-1.3367,-1.3373,-1.3382,-1.321,-1.3368,-1.3368,-1.3367,-1.3367,-1.3367,0,-1.3089,-1.3099,-1.3139,-1.3175,-1.321,-1.3179,-1.3206,-1.3237,-1.3286,-1.3306,-1.3341,-1.3397,-1.344,-1.3446,-1.3486,-1.352,-1.3509,-1.3531,-1.353,-1.3533,-1.3401,-1.3384,-1.354,-1.354,-1.354,-1.354,-1.354,-1.354,-1.318,-1.3251,-1.3246,-1.3325,-1.3334,-1.3388,-1.3405,-1.3428,-1.3444,-1.3507,-1.3543,-1.3545,-1.356,-1.3602,-1.364,-1.364,-1.3658,-1.3686,-1.3682,-1.356,-1.3542,-1.3526,-1.3509,-1.3689,-1.3689,-1.381,-1.3811,-1.3812]},{"header":{"parameterUnit":"m.s-1","parameterCategory":1,"la1":30.2991,"la2":30.254,"lo1":-89.0895,"lo2":-89.0444,"dy":0.0017,"dx":0.0017,"nx":28,"ny":28,"refTime":"2024-04-20T21:00:00:Z","depth":0,"parameterNumber":3,"parameterNumberName":"V-component_of_WINDS"},"data":[0,0,0,0,0,0,0,0,0,0,0,0,0,0,0,0,0,0,0,0,0,0,0,0,0,0,0,0,0,0,0,0,0,0,0,0,0,0,0,0,0,0,0,0,0,0,0,0,0,0,0,0,0,0,0,0,0,0,-6.9254,-6.9255,0,-6.9371,-6.9372,-6.9374,-6.9281,-6.9277,-6.9273,-6.9269,-6.9384,-6.9391,-6.9397,0,0,0,0,0,0,0,0,0,0,0,0,0,-6.8944,-6.895,-6.9254,-6.9255,-6.9257,-6.9371,-6.9372,-6.9374,-6.9282,-6.9277,-6.9272,-6.9268,-6.9382,-6.939,-6.9398,0,0,0,0,0,0,0,0,0,0,0,0,0,-6.9071,-6.8952,-6.9254,-6.9225,-6.9223,-6.9371,-6.9372,-6.9374,-6.9283,-6.9277,-6.9271,-6.9265,-6.9379,-6.9389,-6.9399,-6.9579,0,0,-6.943,-6.9434,0,0,0,0,0,0,0,0,-6.9064,-6.9083,-6.9227,-6.9227,-6.9226,-6.9306,-6.9305,-6.9443,-6.9284,-6.926,-6.9269,-6.9263,-6.9362,-6.9373,-6.9408,-6.9585,-6.959,-6.9431,-6.9437,-6.9441,-6.9444,0,0,0,0,0,0,0,-6.9056,-6.9077,-6.93,-6.923,-6.9229,-6.9204,-6.9215,-6.9331,-6.9343,-6.9262,-6.9255,-6.9271,-6.9361,-6.9399,-6.941,-6.9591,-6.943,-6.9439,-6.9445,-6.9449,-6.992,-6.9926,0,0,0,0,0,0,-6.905,-6.9071,-6.9296,-6.9303,-6.9129,-6.9214,-6.9227,-6.9286,-6.9341,-6.9344,-6.9276,-6.9266,-6.9384,-6.9398,-6.9414,-6.9628,-6.9441,-6.945,-6.9456,-6.9913,-6.9921,-6.9928,0,0,0,0,0,0,-6.9044,-6.9071,-6.9291,-6.9185,-6.9212,-6.9226,-6.9292,-6.9291,-6.9329,-6.9352,-6.9353,-6.9313,-6.938,-6.94,-6.9539,-6.963,-6.9455,-6.9464,-6.9906,-6.9916,-6.9925,-7.0058,0,0,0,0,0,0,-6.9036,-6.907,-6.914,-6.9188,-6.9218,-6.9417,-6.9298,-6.9298,-6.9347,-6.9336,-6.9387,-6.939,-6.9377,-6.9524,-6.9549,-6.9641,-6.9472,-6.9897,-6.991,-6.9921,-7.0045,-7.0071,-7.0093,0,0,0,0,0,-6.9025,-6.9172,-6.9144,-6.9172,-6.9306,-6.9423,-6.9439,-6.9424,-6.9355,-6.9425,-6.9439,-6.9388,-6.9617,-6.9539,-6.9566,-6.9663,-6.9892,-6.9907,-6.9921,-7.0035,-7.0066,-7.0092,0,0,0,0,0,0,-6.9133,-6.9178,-6.9147,-6.9315,-6.9366,-6.9407,-6.9494,-6.9457,-6.9527,-6.9513,-6.9489,-6.9501,-6.9647,-6.9669,-6.9582,-6.9839,-6.9743,-6.9763,-6.982,-6.985,-6.9874,-6.9865,-6.948,0,0,0,0,0,-6.9177,-6.927,-6.9303,-6.9447,-6.9474,-6.948,-6.953,-6.9514,-6.9565,-6.9585,-6.961,-6.966,-6.9742,-6.9797,-6.9875,-7.0048,-7.0057,-7.0127,-7.0151,-7.017,-7.0188,-7.028,-7.0311,-6.9976,-6.9976,-6.9975,0,0,-6.9267,-6.9303,-6.9363,-6.947,-6.9507,-6.9602,-6.9499,-6.9603,-6.9673,-6.96,-6.9734,-6.9754,-6.9807,-6.9964,-7.0034,-6.9986,-7.0283,-7.0189,-7.0204,-7.0212,-7.0298,-7.033,-7.0358,-6.9985,-6.9984,-6.9982,0,0,-6.948,-6.9518,-6.9641,-6.9682,-6.974,-6.9743,-6.9773,-6.982,-6.9831,-6.9964,-6.9912,-6.9993,-7.0136,-7.0177,-7.0216,-7.0444,-7.0399,-7.0469,-7.0593,-7.0683,-7.0709,-7.0732,-7.0813,-7.0842,-7.0487,-7.0487,-7.0488,0,-6.9585,-6.9727,-6.9709,-6.9818,-6.9866,-6.9807,-6.9931,-6.9969,-7.005,-7.0083,-7.0029,-7.0207,-7.0239,-7.0404,-7.046,-7.0494,-7.0526,-7.0463,-7.0707,-7.073,-7.0752,-7.0828,-7.0858,-7.0496,-7.0495,-7.0494,-7.0493,0,-6.9852,-6.9952,-7.0044,-7.0126,-7.0183,-7.03,-7.0297,-7.0358,-7.0336,-7.0344,-7.0479,-7.0516,-7.0599,-7.0637,-7.0616,-7.0799,-7.0767,-7.0711,-7.0613,-7.0792,-7.0863,-7.0892,-7.0507,-7.0504,-7.0502,-7.05,0,0,-7.0137,-7.0207,-7.0241,-7.0277,-7.0337,-7.0412,-7.0524,-7.0608,-7.066,-7.0717,-7.0809,-7.0932,-7.0879,-7.0924,-7.0907,-7.0986,-7.1163,-7.0919,-7.092,-7.0962,-7.1364,-7.1406,-7.1441,-7.1133,-7.1139,-7.1143,-7.1359,0,-7.0352,-7.055,-7.0537,-7.0722,-7.0813,-7.0757,-7.0854,-7.0901,-7.0911,-7.0988,-7.0997,-7.1085,-7.101,-7.1036,-7.1112,-7.1125,-7.1243,-7.1109,-7.1217,-7.1221,-7.1205,-7.1478,-7.1523,-7.1725,-7.1387,-7.1392,-7.1395,0,-7.0631,-7.0699,-7.0894,-7.094,-7.0977,-7.1066,-7.114,-7.1215,-7.1265,-7.1267,-7.1317,-7.1286,-7.1397,-7.1297,-7.1449,-7.1358,-7.1401,-7.1414,-7.1421,-7.143,-7.1319,-7.1493,-7.179,-7.182,-7.1439,-7.1436,-7.1432,0,-7.0818,-7.0958,-7.1093,-7.1125,-7.1182,-7.1245,-7.1272,-7.1316,-7.1367,-7.1431,-7.1464,-7.154,-7.1581,-7.164,-7.163,-7.1558,-7.1783,-7.1683,-7.1786,-7.1787,-7.1836,-7.1833,-7.2143,-7.1865,-7.1865,-7.1864,-7.1863,0,-7.106,-7.1181,-7.1178,-7.1261,-7.1394,-7.1377,-7.1508,-7.1527,-7.1567,-7.1651,-7.1607,-7.1686,-7.1668,-7.1746,-7.1738,-7.1864,-7.1883,-7.1886,-7.1883,-7.189,-7.189,-7.1918,-7.1903,-7.1872,-7.187,-7.1869,-7.1867,0,-7.1291,-7.1295,-7.1438,-7.148,-7.1493,-7.159,-7.1625,-7.1702,-7.1708,-7.1815,-7.1838,-7.1848,-7.1937,-7.1933,-7.2034,-7.2029,-7.2184,-7.2164,-7.2168,-7.2163,-7.2266,-7.2257,-7.2605,-7.2649,-7.2343,-7.2346,-7.2348,0,-7.1445,-7.1537,-7.159,-7.1644,-7.1675,-7.1762,-7.1814,-7.1799,-7.1854,-7.1919,-7.1988,-7.2073,-7.2141,-7.2286,-7.2301,-7.2377,-7.2358,-7.2475,-7.2369,-7.2374,-7.2359,-7.2354,-7.2362,-7.2496,-7.2499,-7.2502,-7.2504,0,-7.1718,-7.1715,-7.1792,-7.1871,-7.1934,-7.1994,-7.2049,-7.2095,-7.2086,-7.215,-7.2242,-7.2295,-7.2398,-7.2483,-7.2557,-7.2581,-7.2541,-7.2537,-7.2565,-7.2573,-7.2571,-7.2573,-7.2223,-7.2529,-7.2527,-7.2525,-7.2523,-7.2522,-7.1915,-7.1994,-7.2043,-7.213,-7.2171,-7.2223,-7.2298,-7.2314,-7.2391,-7.2475,-7.2461,-7.2564,-7.261,-7.2704,-7.2736,-7.2814,-7.2772,-7.2813,-7.2823,-7.2833,-7.2844,-7.256,-7.2827,-7.2826,-7.2826,-7.2825,-7.2825,0,-7.2184,-7.2213,-7.2294,-7.2373,-7.2442,-7.24,-7.2458,-7.2518,-7.2609,-7.2657,-7.2725,-7.2829,-7.2911,-7.2933,-7.3011,-7.307,-7.3053,-7.3091,-7.3086,-7.3092,-7.2878,-7.2846,-7.3103,-7.3102,-7.3102,-7.3102,-7.3102,-7.3102,-7.2332,-7.2464,-7.2467,-7.2616,-7.2644,-7.2746,-7.2782,-7.283,-7.2868,-7.2987,-7.3056,-7.307,-7.3106,-7.3187,-7.3259,-7.3263,-7.3294,-7.3339,-7.3335,-7.3135,-7.3107,-7.308,-7.305,-7.3345,-7.3346,-7.3542,-7.3544,-7.3545]}]]